DL1VED Weather Reports


time (UTC)temp
C
wind
direction
speed
KPH
gust
KPH
rain 1hr
cm
rain 24hr
cm
rain mn
cm
humidity
%
barometer
mb
20260506152906 12 316 1.6 8.0 0.00 0.89 0.00 79 1007.0
20260506151406 12 8 4.8 11.3 0.00 0.89 0.00 79 1006.8
20260506145906 12 355 1.6 8.0 0.00 0.89 0.00 79 1006.7
20260506144406 12 347 3.2 9.7 0.00 0.89 0.00 79 1006.5
20260506142906 12 1 6.4 11.3 0.00 0.91 0.00 78 1006.4
20260506141406 12 15 3.2 9.7 0.00 0.91 0.00 78 1006.4
20260506135906 12 327 6.4 9.7 0.00 0.91 0.00 78 1006.4
20260506134406 12 348 4.8 8.0 0.00 0.91 0.00 77 1006.4
20260506132906 12 333 1.6 8.0 0.00 1.04 0.00 78 1006.4
20260506131406 13 358 4.8 11.3 0.00 1.04 0.00 76 1006.2
20260506125906 13 319 8.0 9.7 0.00 1.04 0.00 74 1006.1
20260506124406 13 340 4.8 11.3 0.00 1.04 0.00 75 1005.9
20260506122906 14 307 6.4 8.0 0.00 1.07 0.00 74 1005.8
20260506121406 13 327 4.8 6.4 0.00 1.07 0.00 75 1005.8
20260506115906 13 11 6.4 9.7 0.00 1.07 0.00 76 1005.7
20260506114406 13 7 6.4 9.7 0.00 1.07 0.00 76 1005.5
20260506112906 14 40 6.4 6.4 0.00 1.07 0.00 77 1005.5
20260506111406 15 293 0.0 9.7 0.00 1.07 0.00 76 1005.5
20260506105906 14 345 8.0 8.0 0.00 1.07 1.07 76 1005.5
20260506104406 14 323 3.2 8.0 0.00 1.07 1.07 76 1005.4
20260506102906 15 291 6.4 9.7 0.00 1.07 1.07 74 1005.4
20260506101406 13 305 0.0 4.8 0.00 1.07 1.07 80 1005.4
20260506095907 14 288 0.0 3.2 0.00 1.07 1.07 79 1005.2
20260506094406 13 320 3.2 4.8 0.00 1.07 1.07 82 1005.1
20260506092906 13 341 3.2 9.7 0.00 1.07 1.07 83 1005.1
20260506091407 13 306 0.0 8.0 0.00 1.07 1.07 82 1005.1
20260506085907 13 326 3.2 3.2 0.00 1.07 1.07 81 1004.8
20260506084407 13 292 3.2 11.3 0.00 1.07 1.07 83 1004.7
20260506082907 13 277 8.0 12.9 0.00 1.07 1.07 83 1004.6
20260506081407 12 303 0.0 8.0 0.00 1.07 1.07 87 1004.5
20260506072907 12 250 8.0 9.7 0.00 1.07 1.07 89 1004.7
20260506071407 11 264 8.0 9.7 0.00 1.07 1.07 89 1004.6
20260506061407 11 236 9.7 14.5 0.00 1.07 1.07 88 1004.2
20260506051407 12 217 4.8 11.3 0.00 1.07 1.07 88 1004.1
20260506044407 12 244 3.2 6.4 0.00 1.07 1.07 87 1004.2
20260506042907 12 223 0.0 0.0 0.00 1.07 1.07 87 1004.3
20260506041407 12 282 0.0 0.0 0.00 1.07 1.07 87 1004.4
20260506035907 12 282 0.0 3.2 0.00 1.07 1.07 88 1004.4
20260506034407 12 281 0.0 0.0 0.00 1.07 1.07 87 1004.6
20260506032907 12 219 0.0 1.6 0.00 1.07 1.07 88 1004.7
20260506031407 12 246 6.4 9.7 0.00 1.07 1.07 88 1004.7
20260506025907 12 268 3.2 8.0 0.00 1.07 1.07 88 1004.7
20260506024407 12 257 4.8 11.3 0.00 1.07 1.07 88 1004.7
20260506022907 12 236 1.6 9.7 0.00 1.07 1.07 88 1004.7
20260506021407 12 275 3.2 8.0 0.00 1.07 1.07 88 1004.6
20260506015907 12 265 6.4 11.3 0.00 1.07 1.07 87 1004.8
20260506014407 12 299 4.8 8.0 0.08 1.07 1.07 88 1004.9
20260506012907 12 293 3.2 9.7 0.13 1.07 1.07 88 1004.9
20260506011407 12 172 0.0 12.9 0.25 1.07 1.07 89 1005.1
20260506005907 12 237 6.4 9.7 0.25 1.07 1.07 88 1005.1
20260506004407 13 255 0.0 0.0 0.18 0.99 0.99 87 1005.2
20260506002907 13 293 0.0 6.4 0.13 0.94 0.94 87 1005.3
20260506001407 13 234 0.0 0.0 0.00 0.81 0.81 87 1005.4
20260505235907 13 234 0.0 0.0 0.00 0.81 0.81 87 1005.6
20260505234407 13 274 0.0 4.8 0.00 0.81 0.81 87 1005.7
20260505232907 13 215 0.0 0.0 0.00 0.81 0.81 87 1005.9
20260505231407 13 253 0.0 0.0 0.00 0.81 0.81 86 1005.9
20260505225907 13 253 0.0 0.0 0.03 0.81 0.81 86 1006.0
20260505224407 13 253 0.0 0.0 0.03 0.81 0.81 87 1006.0
20260505222907 13 253 0.0 0.0 0.05 0.81 0.81 87 1006.1
20260505221407 13 253 0.0 0.0 0.20 0.81 0.81 87 1006.2
20260505215907 13 253 0.0 0.0 0.23 0.79 0.79 87 1006.2
20260505214407 13 253 0.0 0.0 0.36 0.79 0.79 87 1006.2
20260505212907 13 253 0.0 0.0 0.43 0.76 0.76 86 1006.3
20260505211407 13 253 0.0 0.0 0.33 0.61 0.61 86 1006.3
20260505205907 13 253 0.0 0.0 0.30 0.56 0.56 86 1006.3
20260505204407 13 253 0.0 0.0 0.18 0.43 0.43 86 1006.3
20260505202907 13 253 0.0 0.0 0.08 0.33 0.33 85 1006.4
20260505201407 13 253 0.0 0.0 0.05 0.28 0.28 86 1006.4
20260505195959 13 253 0.0 0.0 0.03 0.25 0.25 86 1006.4
20260505195907 13 253 0.0 0.0 0.03 0.25 0.25 86 1006.4
20260505194407 13 253 0.0 0.0 0.03 0.25 0.25 86 1006.4
20260505192907 13 253 0.0 0.0 0.03 0.25 0.25 86 1006.3
20260505191407 13 253 0.0 0.0 0.00 0.23 0.23 85 1006.2
20260505185907 13 253 0.0 0.0 0.00 0.23 0.23 84 1006.2
20260505184407 14 253 0.0 0.0 0.00 0.23 0.23 82 1006.3
20260505182907 14 253 0.0 0.0 0.00 0.23 0.23 82 1006.2
20260505181407 15 253 0.0 0.0 0.00 0.23 0.23 82 1006.3
20260505175907 15 253 0.0 0.0 0.00 0.23 0.23 81 1006.3
20260505174407 15 253 0.0 0.0 0.03 0.23 0.23 81 1006.3
20260505172907 15 253 0.0 0.0 0.03 0.23 0.23 81 1006.3
20260505171407 15 253 0.0 0.0 0.03 0.23 0.23 81 1006.4
20260505165907 15 253 0.0 0.0 0.03 0.23 0.23 81 1006.4
20260505164407 15 253 0.0 0.0 0.00 0.20 0.20 81 1006.4
20260505162907 15 253 0.0 0.0 0.03 0.20 0.20 80 1006.5
20260505161407 15 253 0.0 0.0 0.03 0.20 0.20 80 1006.5